Wind_Speed
3 9 12 28 43 43 44 46 45 51 55 51 47 49 58 58 56 52 48 52 52 53 51 48 46 44 43 42 41 40 40 39 38 37 35 35 35 34 34 34 34 35 36 36 37
4 15 15 14 37 41 42 44 42 47 52 50 49 43 50 55 56 54 49 45 47 49 47 46 45 43 43 42 41 40 39 37 35 35 34 35 37 36 35 37 36 33 32 30 29
6 13 25 14 26 35 39 39 36 42 49 38 41 41 49 52 55 55 51 44 41 41 42 42 42 40 38 38 35 33 32 30 29 30 30 32 34 33 31 29 29 26 20 18 20
9 12 10 15 21 28 34 33 37 42 64 45 27 37 36 49 53 53 51 48 41 37 35 34 33 33 30 29 28 27 24 25 26 26 26 26 28 27 25 22 20 19 19 20 21
7 9 7 16 15 27 30 32 40 43 57 55 52 39 38 41 48 50 50 48 43 39 35 32 31 34 32 31 29 26 23 26 27 27 26 25 26 24 21 19 19 20 22 23 23
13 8 11 21 20 21 32 32 41 54 52 44 46 48 35 39 42 48 47 46 44 40 36 34 31 29 29 28 27 26 26 26 27 26 24 23 23 22 21 21 21 23 26 26 29
18 21 20 17 18 18 23 23 43 55 57 38 43 44 39 38 43 46 46 44 42 40 37 35 32 30 30 29 29 28 26 26 26 25 24 23 24 24 24 25 27 28 29 32 35
32 31 28 18 21 21 21 27 38 51 50 47 43 40 41 40 44 44 46 44 41 39 38 35 33 31 31 30 29 28 28 26 26 26 25 26 25 26 26 28 30 33 35 37 38
30 28 22 23 21 19 19 27 30 59 61 42 40 39 38 38 41 43 43 42 40 38 36 34 32 30 29 29 28 28 28 28 27 27 27 28 27 29 30 33 35 36 37 38 40
23 22 20 21 20 14 19 18 26 43 55 46 43 43 41 39 38 40 40 40 38 37 35 33 31 30 29 28 27 27 28 29 28 28 29 30 30 34 36 37 36 38 38 40 42
24 22 19 13 16 21 20 21 28 45 56 39 39 40 35 36 37 38 39 37 36 34 32 31 30 29 28 27 28 28 30 30 30 31 32 34 34 36 40 39 39 40 41 42 42
37 41 33 35 32 23 19 22 25 49 38 43 37 37 36 35 35 36 35 34 33 32 32 30 29 28 28 28 29 29 30 31 32 34 35 36 35 36 40 42 43 43 43 41 38
34 35 40 29 27 25 25 34 30 28 28 31 26 27 28 30 29 29 31 33 33 34 32 30 30 30 30 30 31 31 31 32 33 35 37 39 40 40 41 43 42 39 37 34 33
51 45 36 35 44 53 51 44 36 27 22 24 27 30 29 28 28 29 26 30 32 32 32 32 31 30 30 30 30 31 31 32 35 38 40 41 45 39 38 37 34 34 32 32 33
41 42 42 43 41 39 43 45 37 32 32 30 29 29 29 27 27 29 30 30 32 33 31 29 30 29 29 29 30 31 32 34 37 39 40 40 42 34 31 31 31 31 30 31 32
40 42 35 28 25 27 32 32 35 36 32 30 26 25 25 26 24 23 24 26 27 28 29 28 26 27 28 27 28 30 32 34 35 35 35 33 36 31 30 29 29 30 30 31 24
34 32 34 34 32 31 31 27 27 29 30 30 27 30 25 24 23 20 17 15 20 22 22 24 26 21 20 23 24 26 26 28 29 29 32 33 35 29 30 27 27 24 19 18 20
32 30 31 32 29 26 26 31 31 30 29 24 19 20 20 20 21 18 18 18 19 21 22 22 19 21 18 15 16 18 20 22 27 24 21 20 21 15 14 12 15 17 17 17 18
35 32 32 32 31 30 27 23 24 25 23 25 25 24 21 18 17 16 14 12 13 16 15 14 13 10 10 11 12 16 16 12 14 14 11 7 10 11 11 13 15 16 17 19 23
36 37 37 37 38 36 34 33 32 28 24 22 21 19 18 17 16 15 14 13 13 12 10 10 10 8 8 10 9 9 11 13 17 18 14 12 12 17 21 19 21 22 22 24 26
31 29 30 30 30 30 29 28 29 30 30 28 22 18 19 18 16 15 15 14 11 10 10 10 10 8 6 7 8 10 12 13 16 18 20 16 9 17 21 22 24 25 26 25 24
25 23 26 25 24 24 23 25 26 27 26 26 25 26 25 24 22 21 20 17 15 13 11 9 7 6 4 4 7 10 14 16 18 19 19 20 1 17 21 24 24 23 21 25 26
20 20 19 20 21 21 21 21 22 23 23 23 22 22 21 20 19 18 16 14 12 10 7 5 3 1 2 4 6 8 12 12 13 11 8 17 13 23 27 24 23 22 25 30 30
14 15 16 16 16 16 17 18 18 18 18 19 18 18 17 16 15 13 12 10 9 8 7 7 6 4 3 3 4 5 9 11 12 12 12 11 13 17 16 15 14 14 17 20 24
14 9 10 11 11 11 12 13 13 14 14 13 12 12 12 11 11 10 10 9 8 7 6 5 5 4 3 3 4 5 7 10 10 11 9 12 15 14 18 17 18 18 17 17 18
12 10 11 7 6 7 7 6 7 7 8 8 8 8 8 7 7 6 6 6 7 5 4 3 3 4 5 6 6 8 9 11 13 14 14 15 16 17 18 19 20 21 21 21 22
13 10 8 8 9 6 4 5 4 3 2 2 2 2 3 1 1 1 1 1 1 1 1 3 3 5 10 10 12 14 14 16 19 17 17 21 21 22 23 23 22 22 22 22 22
Wind_Direction
207 204 204 208 213 210 211 208 209 205 205 206 209 210 211 206 205 210 214 214 215 217 219 219 222 225 230 233 237 241 246 252 259 263 264 265 265 265 268 271 272 273 271 272 274
212 146 185 203 195 206 204 202 201 199 198 204 208 207 208 208 204 205 210 210 213 218 218 220 223 226 231 236 242 246 252 256 257 259 261 263 265 267 266 267 267 267 268 269 269
147 127 148 152 193 194 197 193 197 193 186 184 199 204 208 206 206 203 204 207 208 210 216 220 223 226 231 234 238 243 247 245 245 249 255 259 261 262 262 261 262 261 255 252 257
108 122 127 167 171 183 189 192 195 190 173 177 175 190 193 201 203 202 202 204 204 206 205 209 214 217 218 223 222 224 228 238 245 251 255 257 259 259 255 248 245 247 253 258 262
130 122 104 142 177 180 176 182 186 184 179 190 194 194 193 195 199 200 201 202 203 206 205 203 205 210 216 218 222 227 235 244 247 249 254 253 253 248 235 235 245 255 262 272 282
87 108 100 113 89 151 166 181 180 175 168 173 191 202 201 193 195 196 198 199 201 203 207 207 208 207 210 212 217 221 227 237 246 249 247 245 240 238 241 247 253 262 270 279 285
83 80 76 101 89 108 147 165 181 177 164 161 166 181 195 195 192 193 193 196 199 200 206 210 212 211 217 219 222 225 230 237 246 245 245 244 240 241 247 255 264 270 277 284 287
100 84 87 108 109 113 155 174 178 173 148 156 151 170 174 180 184 187 190 191 194 198 203 207 212 215 220 223 223 227 233 238 243 244 243 241 239 247 256 265 273 278 282 285 287
92 83 81 101 123 133 153 177 174 179 166 150 165 167 168 172 179 181 185 188 192 196 201 205 210 214 220 224 229 231 236 239 243 243 242 243 246 253 261 267 273 278 283 286 287
88 87 91 96 110 140 148 157 167 168 146 152 165 174 173 168 171 176 178 184 189 194 197 202 207 213 219 223 228 233 236 239 241 242 245 250 255 260 264 269 277 282 285 286 287
73 87 90 96 112 124 127 133 168 166 157 144 159 168 174 176 175 179 179 178 181 188 194 199 205 212 219 225 230 234 235 239 241 243 249 255 258 266 270 274 279 281 283 283 284
85 63 82 95 105 119 100 106 149 173 153 133 145 159 160 165 168 170 175 178 182 187 192 196 204 210 218 225 231 234 238 241 245 249 254 259 264 271 276 280 284 286 284 285 286
75 68 73 84 97 108 110 107 123 142 131 141 156 155 158 164 166 171 178 182 187 190 194 198 204 210 217 224 231 235 241 247 254 261 265 267 268 273 278 280 281 281 281 284 283
71 73 85 106 105 101 96 109 126 141 161 160 155 152 160 169 174 174 179 184 190 195 197 202 206 214 221 228 235 241 247 254 262 267 270 272 273 274 278 277 279 278 279 278 282
68 76 103 106 95 91 95 112 130 142 151 148 156 148 146 158 171 180 187 197 196 200 204 207 212 219 227 235 242 249 255 261 264 268 271 275 276 278 276 278 279 280 282 283 284
68 70 80 92 90 94 104 112 117 128 131 137 146 154 156 159 160 168 178 187 199 204 210 213 219 226 233 240 248 252 259 264 269 273 276 283 282 283 283 282 280 282 283 283 281
72 73 75 72 79 87 94 105 120 121 127 138 134 135 140 138 140 147 158 183 198 204 204 210 218 223 229 237 248 258 266 276 281 287 288 287 284 290 283 281 284 282 276 274 275
57 70 69 71 77 81 84 94 92 93 102 116 127 137 145 148 149 151 157 163 172 187 197 204 208 215 230 242 256 270 278 285 294 296 292 284 298 290 281 273 272 277 275 271 279
57 63 65 68 74 83 89 89 94 95 96 100 108 112 114 119 125 127 142 157 166 177 184 196 197 210 231 249 270 281 279 276 290 303 306 287 297 305 288 274 280 285 281 287 301
64 65 68 71 74 78 80 81 85 94 102 104 107 110 115 117 125 133 137 143 142 147 159 176 187 205 242 256 255 262 276 285 294 302 296 275 281 286 283 282 286 288 284 290 295
57 60 66 68 69 72 73 78 83 87 90 94 105 115 122 126 128 136 140 143 150 157 152 153 163 167 183 227 261 280 292 306 309 310 314 315 301 285 290 284 281 280 282 285 285
48 56 56 62 66 72 77 78 82 86 90 94 100 105 109 113 114 115 120 125 131 133 132 137 150 177 210 264 297 309 306 306 306 305 307 304 334 298 286 282 282 280 279 281 287
37 45 53 56 61 65 69 75 80 85 90 95 99 103 106 110 112 116 119 122 123 123 124 123 132 189 273 299 301 294 304 333 347 343 326 299 296 276 288 305 304 301 287 287 288
26 29 38 48 56 63 67 69 74 80 88 93 96 98 100 101 103 105 105 105 106 109 112 107 110 101 77 28 359 333 326 343 351 349 354 331 342 325 341 350 329 321 305 300 292
24 18 20 26 29 45 58 61 65 66 65 67 72 76 76 77 81 86 91 101 105 102 93 84 70 63 36 31 10 348 343 337 342 341 352 322 334 335 334 337 333 334 331 329 325
8 17 27 2 5 19 15 41 57 59 64 64 60 58 53 52 56 59 70 73 71 68 65 19 330 333 324 336 338 331 324 322 328 328 327 323 322 328 324 327 325 325 325 322 320
2 351 1 5 21 354 332 339 338 347 354 30 58 61 34 32 76 102 103 101 334 274 277 301 318 314 320 329 320 316 314 315 312 317 316 314 319 317 317 317 317 319 318 317 316
Height
5556 5558 5562 5568 5579 5592 5604 5615 5627 5641 5654 5668 5678 5688 5701 5713 5723 5734 5744 5753 5762 5770 5778 5785 5794 5800 5805 5811 5815 5819 5824 5827 5830 5831 5833 5834 5835 5838 5839 5840 5841 5841 5840 5840 5839
5557 5562 5561 5567 5573 5585 5598 5610 5623 5634 5650 5663 5672 5683 5695 5706 5717 5729 5741 5749 5757 5766 5774 5781 5789 5795 5801 5807 5811 5815 5820 5824 5825 5825 5827 5829 5830 5831 5834 5835 5835 5835 5835 5836 5836
5560 5562 5561 5568 5574 5584 5596 5608 5620 5632 5649 5661 5672 5677 5689 5700 5712 5724 5736 5748 5755 5763 5770 5778 5785 5791 5798 5803 5807 5812 5816 5818 5819 5820 5821 5823 5824 5826 5827 5829 5829 5830 5831 5832 5832
5564 5567 5568 5570 5577 5584 5595 5606 5617 5629 5643 5650 5663 5672 5684 5696 5710 5721 5732 5743 5752 5761 5768 5775 5781 5788 5793 5798 5802 5807 5811 5813 5815 5816 5817 5818 5820 5821 5823 5824 5825 5826 5827 5827 5829
5568 5571 5574 5577 5581 5586 5594 5603 5613 5627 5641 5652 5661 5671 5681 5694 5706 5718 5728 5739 5749 5758 5765 5771 5777 5783 5789 5794 5799 5803 5806 5809 5810 5812 5813 5815 5816 5817 5819 5820 5821 5822 5823 5824 5824
5573 5576 5579 5582 5585 5588 5596 5605 5614 5623 5635 5650 5662 5673 5683 5693 5704 5714 5726 5736 5745 5755 5762 5770 5776 5781 5786 5791 5796 5799 5802 5805 5807 5808 5810 5811 5813 5814 5816 5817 5819 5819 5819 5820 5819
5579 5581 5583 5589 5593 5595 5602 5609 5615 5622 5634 5648 5659 5671 5683 5693 5702 5713 5723 5733 5743 5752 5760 5767 5773 5778 5784 5788 5792 5796 5799 5801 5803 5805 5807 5809 5811 5812 5813 5814 5814 5815 5815 5815 5813
5586 5588 5591 5595 5600 5602 5605 5609 5618 5627 5636 5649 5660 5670 5681 5692 5701 5711 5721 5731 5740 5749 5757 5764 5771 5776 5781 5786 5789 5792 5795 5797 5800 5802 5804 5807 5808 5808 5809 5810 5810 5810 5810 5808 5806
5597 5597 5599 5600 5604 5607 5608 5613 5620 5627 5638 5651 5662 5671 5682 5691 5702 5711 5721 5730 5738 5747 5755 5762 5769 5774 5780 5783 5787 5789 5793 5795 5797 5799 5801 5803 5804 5805 5805 5805 5805 5805 5803 5801 5799
5606 5605 5605 5606 5607 5610 5614 5616 5622 5631 5643 5654 5664 5676 5685 5695 5703 5712 5720 5729 5738 5746 5754 5760 5766 5772 5777 5781 5785 5787 5790 5792 5794 5796 5797 5799 5800 5799 5799 5800 5799 5797 5795 5793 5790
5614 5613 5612 5612 5613 5617 5621 5626 5628 5636 5645 5660 5670 5679 5689 5697 5705 5714 5722 5729 5737 5745 5752 5758 5764 5769 5774 5778 5781 5784 5786 5788 5790 5791 5793 5794 5795 5793 5791 5792 5792 5790 5788 5785 5783
5626 5623 5622 5619 5621 5624 5627 5634 5638 5647 5657 5664 5675 5684 5694 5701 5708 5715 5723 5731 5737 5745 5750 5757 5762 5767 5771 5775 5779 5781 5783 5785 5786 5786 5787 5787 5789 5787 5785 5783 5781 5780 5778 5775 5774
5639 5636 5635 5635 5633 5634 5637 5642 5651 5660 5668 5678 5684 5690 5698 5705 5711 5718 5725 5731 5737 5744 5749 5754 5760 5764 5768 5771 5774 5777 5779 5780 5782 5782 5782 5781 5782 5781 5778 5776 5774 5772 5770 5768 5766
5654 5651 5650 5649 5649 5650 5654 5659 5666 5672 5678 5685 5689 5694 5700 5706 5713 5720 5726 5733 5738 5743 5748 5753 5758 5762 5765 5769 5772 5774 5775 5776 5776 5776 5775 5774 5769 5774 5771 5767 5765 5764 5764 5762 5760
5669 5668 5665 5664 5666 5668 5670 5672 5677 5681 5685 5689 5694 5699 5703 5709 5715 5719 5725 5731 5735 5741 5749 5754 5757 5761 5764 5767 5769 5771 5771 5771 5770 5769 5767 5766 5762 5765 5763 5762 5759 5758 5758 5757 5755
5684 5681 5680 5678 5677 5677 5679 5680 5684 5689 5690 5694 5698 5702 5706 5711 5716 5721 5726 5732 5737 5742 5747 5753 5756 5759 5762 5764 5765 5766 5766 5765 5764 5763 5761 5759 5756 5760 5756 5755 5754 5753 5751 5749 5748
5696 5694 5692 5690 5688 5688 5687 5688 5692 5693 5697 5699 5702 5706 5711 5715 5718 5722 5727 5733 5738 5743 5747 5750 5753 5757 5759 5760 5762 5762 5762 5761 5760 5759 5756 5753 5750 5754 5750 5749 5748 5746 5745 5745 5744
5708 5704 5702 5701 5699 5698 5698 5699 5700 5701 5702 5705 5708 5712 5715 5717 5720 5724 5728 5733 5736 5740 5744 5748 5753 5755 5757 5758 5760 5759 5759 5758 5754 5753 5750 5747 5745 5745 5743 5743 5742 5742 5741 5740 5740
5718 5715 5712 5710 5708 5708 5708 5710 5708 5708 5711 5712 5714 5717 5720 5724 5727 5729 5733 5736 5739 5742 5746 5749 5752 5754 5756 5757 5758 5756 5755 5754 5752 5750 5747 5746 5745 5743 5741 5740 5739 5739 5738 5736 5734
5730 5727 5724 5721 5718 5718 5717 5717 5715 5715 5716 5718 5720 5722 5725 5728 5731 5734 5737 5740 5743 5745 5748 5750 5752 5753 5754 5754 5754 5754 5753 5752 5749 5746 5744 5743 5742 5740 5737 5737 5735 5734 5732 5730 5728
5740 5738 5734 5732 5729 5729 5728 5728 5726 5724 5724 5724 5725 5727 5729 5732 5734 5737 5740 5742 5744 5745 5747 5748 5750 5752 5753 5753 5752 5752 5750 5748 5746 5743 5740 5738 5739 5734 5733 5731 5729 5726 5725 5723 5720
5747 5745 5742 5741 5740 5737 5737 5736 5735 5734 5733 5733 5734 5734 5736 5737 5739 5740 5742 5744 5745 5747 5748 5749 5750 5750 5752 5751 5749 5748 5747 5745 5742 5741 5738 5736 5737 5732 5728 5725 5723 5721 5719 5717 5714
5754 5752 5749 5747 5746 5745 5744 5743 5741 5740 5740 5740 5741 5741 5741 5742 5743 5743 5745 5746 5746 5747 5748 5749 5749 5749 5749 5750 5747 5745 5743 5741 5738 5736 5735 5730 5732 5725 5722 5720 5718 5716 5714 5711 5708
5759 5757 5755 5752 5750 5749 5748 5747 5747 5746 5745 5745 5745 5745 5745 5745 5745 5745 5745 5746 5746 5746 5747 5747 5747 5747 5747 5745 5744 5743 5741 5739 5737 5734 5732 5729 5727 5722 5719 5716 5713 5710 5707 5704 5701
5762 5760 5759 5757 5755 5753 5751 5749 5748 5748 5748 5748 5748 5748 5748 5748 5748 5747 5747 5747 5747 5747 5747 5747 5746 5746 5745 5744 5743 5742 5740 5738 5736 5734 5732 5728 5724 5722 5718 5715 5712 5709 5705 5702 5699
5764 5762 5761 5759 5758 5757 5756 5754 5752 5751 5750 5749 5749 5749 5749 5749 5749 5748 5747 5748 5748 5748 5747 5747 5747 5745 5745 5743 5741 5739 5737 5734 5732 5729 5727 5724 5721 5718 5715 5712 5708 5705 5702 5698 5694
5765 5763 5761 5760 5759 5758 5757 5756 5755 5753 5752 5750 5750 5749 5749 5749 5748 5747 5747 5747 5747 5747 5746 5745 5745 5744 5742 5740 5738 5737 5735 5732 5729 5727 5725 5721 5720 5716 5713 5710 5707 5703 5698 5694 5690